Time,TemperatureF,DewpointF,PressureIn,WindDirection,WindDirectionDegrees,WindSpeedMPH,WindSpeedGustMPH,Humidity,HourlyPrecipIn,Conditions,Clouds,dailyrainin,SolarRadiationWatts/m^2,SoftwareType,DateUTC
2013-07-20 00:01:00,67.0,29.0,-100.00,NNW,339,9.0,13.0,24,0.00,,,0.00,0.000000,,2013-07-20 06:01:00,
2013-07-20 00:43:00,66.0,28.0,-100.00,NNW,336,7.0,10.0,24,0.00,,,0.00,0.000000,,2013-07-20 06:43:00,
2013-07-20 00:52:00,66.0,28.0,-100.00,NNW,336,7.0,10.0,24,0.00,,,0.00,0.000000,,2013-07-20 06:52:00,
2013-07-20 01:01:00,66.0,28.0,-100.00,NNW,336,7.0,10.0,24,0.00,,,0.00,0.000000,,2013-07-20 07:01:00,
2013-07-20 01:33:00,64.0,28.0,-100.00,South,189,2.0,9.0,26,0.00,,,0.00,0.000000,,2013-07-20 07:33:00,
2013-07-20 01:44:00,64.0,28.0,-100.00,South,189,2.0,9.0,26,0.00,,,0.00,0.000000,,2013-07-20 07:44:00,
2013-07-20 01:54:00,64.0,28.0,-100.00,South,189,2.0,9.0,26,0.00,,,0.00,0.000000,,2013-07-20 07:54:00,
2013-07-20 02:01:00,64.0,28.0,-100.00,South,189,2.0,9.0,26,0.00,,,0.00,0.000000,,2013-07-20 08:01:00,
2013-07-20 02:44:00,63.0,26.0,-100.00,WNW,284,5.0,9.0,24,0.00,,,0.00,0.000000,,2013-07-20 08:44:00,
2013-07-20 03:43:00,59.0,25.0,-100.00,North,358,5.0,9.0,27,-99.99,,,0.00,0.000000,,2013-07-20 09:43:00,
2013-07-20 03:53:00,59.0,25.0,-100.00,North,358,5.0,9.0,27,-99.99,,,0.00,0.000000,,2013-07-20 09:53:00,
2013-07-20 04:01:00,59.0,25.0,-100.00,North,358,5.0,9.0,27,-99.99,,,0.00,0.000000,,2013-07-20 10:01:00,
2013-07-20 04:32:00,60.0,26.0,-100.00,North,354,4.0,7.0,27,0.00,,,0.00,0.000000,,2013-07-20 10:32:00,
2013-07-20 04:42:00,60.0,26.0,-100.00,North,354,4.0,7.0,27,0.00,,,0.00,0.000000,,2013-07-20 10:42:00,
2013-07-20 04:52:00,60.0,26.0,-100.00,North,354,4.0,7.0,27,0.00,,,0.00,0.000000,,2013-07-20 10:52:00,
2013-07-20 05:01:00,60.0,26.0,-100.00,North,354,4.0,7.0,27,0.00,,,0.00,0.000000,,2013-07-20 11:01:00,
2013-07-20 05:32:00,58.0,26.0,-100.00,North,9,5.0,7.0,29,-99.99,,,-99.99,0.000000,,2013-07-20 11:32:00,
2013-07-20 05:43:00,58.0,26.0,-100.00,North,9,5.0,7.0,29,-99.99,,,-99.99,0.000000,,2013-07-20 11:43:00,
2013-07-20 05:52:00,58.0,26.0,-100.00,North,9,5.0,7.0,29,-99.99,,,-99.99,0.000000,,2013-07-20 11:52:00,
2013-07-20 06:32:00,57.0,27.0,-100.00,North,355,5.0,6.0,32,-99.99,,,0.00,1.000000,,2013-07-20 12:32:00,
2013-07-20 06:52:00,57.0,27.0,-100.00,North,355,5.0,6.0,32,-99.99,,,0.00,1.000000,,2013-07-20 12:52:00,
2013-07-20 07:43:00,58.0,28.0,-100.00,North,358,6.0,8.0,32,-99.99,,,0.00,65.000000,,2013-07-20 13:43:00,
2013-07-20 07:53:00,58.0,28.0,-100.00,North,358,6.0,8.0,32,-99.99,,,0.00,65.000000,,2013-07-20 13:53:00,
2013-07-20 08:53:00,62.0,30.0,-100.00,North,7,4.0,5.0,30,0.00,,,0.00,260.000000,,2013-07-20 14:53:00,
2013-07-20 09:33:00,66.0,31.0,-100.00,South,181,2.0,4.0,27,0.00,,,0.00,470.000000,,2013-07-20 15:33:00,
2013-07-20 09:44:00,66.0,31.0,-100.00,South,181,2.0,4.0,27,0.00,,,0.00,470.000000,,2013-07-20 15:44:00,
2013-07-20 09:53:00,66.0,31.0,-100.00,South,181,2.0,4.0,27,0.00,,,0.00,470.000000,,2013-07-20 15:53:00,
2013-07-20 10:01:00,66.0,31.0,-100.00,South,181,2.0,4.0,27,0.00,,,0.00,470.000000,,2013-07-20 16:01:00,
2013-07-20 10:32:00,67.0,34.0,-100.00,SSW,207,5.0,7.0,29,0.00,,,0.00,226.000000,,2013-07-20 16:32:00,
2013-07-20 10:43:00,67.0,34.0,-100.00,SSW,207,5.0,7.0,29,0.00,,,0.00,226.000000,,2013-07-20 16:43:00,
2013-07-20 10:52:00,67.0,34.0,-100.00,SSW,207,5.0,7.0,29,0.00,,,0.00,226.000000,,2013-07-20 16:52:00,
2013-07-20 11:02:00,67.0,34.0,-100.00,SSW,207,5.0,7.0,29,0.00,,,0.00,226.000000,,2013-07-20 17:02:00,
2013-07-20 11:43:00,70.0,28.0,-100.00,SSW,196,9.0,14.0,21,0.00,,,0.00,835.000000,,2013-07-20 17:43:00,
2013-07-20 11:53:00,70.0,28.0,-100.00,SSW,196,9.0,14.0,21,0.00,,,0.00,835.000000,,2013-07-20 17:53:00,
2013-07-20 12:01:00,70.0,28.0,-100.00,SSW,196,9.0,14.0,21,0.00,,,0.00,835.000000,,2013-07-20 18:01:00,
2013-07-20 12:47:00,71.0,23.0,-100.00,South,180,9.0,17.0,16,0.00,,,0.00,981.000000,,2013-07-20 18:47:00,
2013-07-20 13:03:00,71.0,23.0,-100.00,South,180,9.0,17.0,16,0.00,,,0.00,981.000000,,2013-07-20 19:03:00,
2013-07-20 14:35:00,76.0,22.0,-100.00,SSW,205,13.0,24.0,13,0.00,,,0.00,1184.000000,,2013-07-20 20:35:00,
2013-07-20 14:47:00,76.0,22.0,-100.00,SSW,205,13.0,24.0,13,0.00,,,0.00,1184.000000,,2013-07-20 20:47:00,
2013-07-20 14:56:00,76.0,22.0,-100.00,SSW,205,13.0,24.0,13,0.00,,,0.00,1184.000000,,2013-07-20 20:56:00,
2013-07-20 15:02:00,76.0,22.0,-100.00,SSW,205,13.0,24.0,13,0.00,,,0.00,1184.000000,,2013-07-20 21:02:00,
2013-07-20 15:55:00,78.0,21.0,-100.00,SW,229,10.0,18.0,12,0.00,,,0.00,995.000000,,2013-07-20 21:55:00,
2013-07-20 16:03:00,78.0,21.0,-100.00,SW,229,10.0,18.0,12,0.00,,,0.00,995.000000,,2013-07-20 22:03:00,
2013-07-20 16:48:00,80.0,30.0,-100.00,NW,316,7.0,19.0,16,0.00,,,0.00,941.000000,,2013-07-20 22:48:00,
2013-07-20 16:55:00,80.0,30.0,-100.00,NW,316,7.0,19.0,16,0.00,,,0.00,941.000000,,2013-07-20 22:55:00,
2013-07-20 17:03:00,80.0,30.0,-100.00,NW,316,7.0,19.0,16,0.00,,,0.00,941.000000,,2013-07-20 23:03:00,
2013-07-20 17:39:00,80.0,28.0,-100.00,WNW,292,9.0,19.0,15,0.00,,,0.00,865.000000,,2013-07-20 23:39:00,
2013-07-20 17:45:00,80.0,28.0,-100.00,WNW,292,9.0,19.0,15,0.00,,,0.00,865.000000,,2013-07-20 23:45:00,
2013-07-20 17:56:00,80.0,28.0,-100.00,WNW,292,9.0,19.0,15,0.00,,,0.00,865.000000,,2013-07-20 23:56:00,
2013-07-20 18:03:00,80.0,28.0,-100.00,WNW,292,9.0,19.0,15,0.00,,,0.00,865.000000,,2013-07-21 00:03:00,
2013-07-20 18:45:00,80.0,27.0,-100.00,NW,310,7.0,19.0,14,0.00,,,0.00,701.000000,,2013-07-21 00:45:00,
2013-07-20 19:36:00,77.0,20.0,-100.00,NW,321,11.0,17.0,12,0.00,,,0.00,497.000000,,2013-07-21 01:36:00,
2013-07-20 19:49:00,-999.0,-99.9,-100.00,NW,321,11.0,17.0,-999,-99.99,,,-99.99,497.000000,,2013-07-21 01:49:00,
2013-07-20 19:58:00,77.0,20.0,-100.00,NW,321,11.0,17.0,12,0.00,,,0.00,497.000000,,2013-07-21 01:58:00,
2013-07-20 20:56:00,74.0,18.0,-100.00,NNW,327,13.0,22.0,12,0.00,,,0.00,288.000000,,2013-07-21 02:56:00,
2013-07-20 21:02:00,74.0,18.0,-100.00,NNW,327,13.0,22.0,12,0.00,,,0.00,288.000000,,2013-07-21 03:02:00,
2013-07-20 21:37:00,71.0,18.0,-100.00,NW,325,14.0,21.0,13,0.00,,,0.00,94.000000,,2013-07-21 03:37:00,
2013-07-20 21:46:00,71.0,18.0,-100.00,NW,325,14.0,21.0,13,0.00,,,0.00,94.000000,,2013-07-21 03:46:00,
2013-07-20 22:01:00,71.0,18.0,-100.00,NW,325,14.0,21.0,13,0.00,,,0.00,94.000000,,2013-07-21 04:01:00,
2013-07-20 22:43:00,69.0,18.0,-100.00,NW,306,13.0,21.0,14,0.00,,,0.00,2.000000,,2013-07-21 04:43:00,
2013-07-20 22:53:00,69.0,18.0,-100.00,NW,306,13.0,21.0,14,0.00,,,0.00,2.000000,,2013-07-21 04:53:00,
2013-07-20 23:01:00,69.0,18.0,-100.00,NW,306,13.0,21.0,14,0.00,,,0.00,2.000000,,2013-07-21 05:01:00,
2013-07-20 23:32:00,66.0,24.0,-100.00,NW,316,11.0,21.0,20,0.00,,,0.00,0.000000,,2013-07-21 05:32:00,
2013-07-20 23:42:00,66.0,24.0,-100.00,NW,316,11.0,21.0,20,0.00,,,0.00,0.000000,,2013-07-21 05:42:00,
2013-07-20 23:52:00,66.0,24.0,-100.00,NW,316,11.0,21.0,20,0.00,,,0.00,0.000000,,2013-07-21 05:52:00,